Weather History for KW22 - October, 2013

Change the Weather History Date:

Saturday, October 12, 2013

  Actual Average (KEKN) Record (KEKN)
Temperature  
Mean Temperature 64 °F 52 °F  
Max Temperature 73 °F 65 °F 84 °F (2008)
Min Temperature 55 °F 40 °F 16 °F (1906)
Degree Days  
Heating Degree Days 1 13  
Month to date heating degree days 131  
Since 1 July heating degree days 291  
Cooling Degree Days 0 0  
Month to date cooling degree days 0  
Year to date cooling degree days 471  
Growing Degree Days 14 (Base 50)    
Moisture  
Dew Point 58 °F    
Average Humidity 87    
Maximum Humidity 100    
Minimum Humidity 64    
Precipitation  
Precipitation 0.00 in 0.09 in 1.12 in (1927)
Month to date precipitation 1.12  
Year to date precipitation 37.56  
Snow  
Snow 0.00 in - - ()
Month to date snowfall  
Since 1 September snowfall  
Snow Depth -    
Sea Level Pressure  
Sea Level Pressure 30.11 in    
Wind  
Wind Speed 1 mph (NE)    
Max Wind Speed 6 mph    
Max Gust Speed -    
Visibility 7 miles    
Events Fog    
T = Trace of Precipitation, MM = Missing Value Source: NWS Daily Summary

Daily Weather History Graph

Daily Weather History Graph

Search for Another Location

Airport or City:

Trip Planner

Search our weather history database for the weather conditions in past years. The results will help you decide how hot, cold, wet, or windy it might be!

Date:

Astronomy

Oct. 12, 2013 Rise Set
Actual Time 7:27 AM EDT 6:46 PM EDT
Civil Twilight 7:01 AM EDT 7:13 PM EDT
Nautical Twilight 6:30 AM EDT 7:44 PM EDT
Astronomical Twilight 5:59 AM EDT 8:15 PM EDT
Moon 2:52 PM EDT (10/12) 12:32 AM EDT (10/12)
Length of Visible Light 12h 12m
Length of Day
11h 18m
First Quarter, 58% of the Moon is Illuminated
Oct 12
First Quarter
Oct 18
Full
Oct 26
Last Quarter
Nov 3
New
Nov 10
First Quarter

Hourly Weather History & Observations

Time (EDT) Temp. Dew Point Humidity Pressure Visibility Wind Dir Wind Speed Gust Speed Precip Events Conditions
12:15 AM 55.4 °F 55.4 °F 100% 30.07 in 2.0 mi Calm Calm - N/A   Overcast
12:35 AM 55.4 °F 55.4 °F 100% 30.06 in 2.0 mi Calm Calm - N/A   Overcast
12:55 AM 55.4 °F 55.4 °F 100% 30.07 in 3.0 mi Calm Calm - N/A   Overcast
1:15 AM 55.4 °F 55.4 °F 100% 30.07 in 3.0 mi Calm Calm - N/A   Overcast
1:35 AM 55.4 °F 55.4 °F 100% 30.07 in 5.0 mi Calm Calm - N/A   Overcast
1:55 AM 55.4 °F 55.4 °F 100% 30.07 in 5.0 mi Calm Calm - N/A   Overcast
2:15 AM 55.4 °F 55.4 °F 100% 30.07 in 5.0 mi Calm Calm - N/A   Overcast
2:35 AM 55.4 °F 55.4 °F 100% 30.06 in 5.0 mi Calm Calm - N/A   Overcast
2:55 AM 55.4 °F 55.4 °F 100% 30.06 in 4.0 mi Calm Calm - N/A   Overcast
3:15 AM 55.4 °F 55.4 °F 100% 30.07 in 5.0 mi Calm Calm - N/A   Overcast
3:35 AM 55.4 °F 55.4 °F 100% 30.07 in 5.0 mi NNE 4.6 mph - N/A   Overcast
3:55 AM 55.4 °F 55.4 °F 100% 30.07 in 3.0 mi Calm Calm - N/A   Overcast
4:15 AM 55.4 °F 55.4 °F 100% 30.07 in 2.5 mi Calm Calm - N/A   Overcast
4:35 AM 55.4 °F 55.4 °F 100% 30.07 in 1.8 mi Calm Calm - N/A   Overcast
4:55 AM 55.4 °F 55.4 °F 100% 30.08 in 1.2 mi Calm Calm - N/A   Overcast
5:15 AM 55.4 °F 55.4 °F 100% 30.08 in 2.0 mi Calm Calm - N/A   Overcast
5:35 AM 55.4 °F 55.4 °F 100% 30.09 in 1.5 mi Calm Calm - N/A   Overcast
5:55 AM 55.4 °F 55.4 °F 100% 30.10 in 2.0 mi Calm Calm - N/A   Overcast
6:15 AM 55.4 °F 55.4 °F 100% 30.10 in 0.8 mi Calm Calm - N/A   Overcast
6:35 AM 55.4 °F 55.4 °F 100% 30.11 in 1.0 mi Calm Calm - N/A   Overcast
7:15 AM 55.4 °F 55.4 °F 100% 30.11 in 0.5 mi Calm Calm - N/A Fog Fog
7:35 AM 55.4 °F 55.4 °F 100% 30.12 in 0.2 mi Calm Calm - N/A Fog Fog
7:55 AM 55.4 °F 55.4 °F 100% 30.12 in 1.0 mi Calm Calm - N/A   Overcast
8:15 AM 55.4 °F 55.4 °F 100% 30.12 in 0.8 mi Calm Calm - N/A   Overcast
8:35 AM 55.4 °F 55.4 °F 100% 30.12 in 1.5 mi Calm Calm - N/A   Overcast
8:55 AM 55.4 °F 55.4 °F 100% 30.12 in 4.0 mi Calm Calm - N/A   Overcast
9:15 AM 55.4 °F 55.4 °F 100% 30.12 in 5.0 mi Calm Calm - N/A   Overcast
9:35 AM 57.2 °F 57.2 °F 100% 30.12 in 8.0 mi Calm Calm - N/A   Overcast
9:55 AM 57.2 °F 57.2 °F 100% 30.13 in 10.0 mi Calm Calm - N/A   Overcast
10:15 AM 59.0 °F 59.0 °F 100% 30.13 in 10.0 mi Calm Calm - N/A   Overcast
10:35 AM 60.8 °F 57.2 °F 88% 30.13 in 10.0 mi Calm Calm - N/A   Mostly Cloudy
10:55 AM 62.6 °F 57.2 °F 82% 30.13 in 10.0 mi Calm Calm - N/A   Scattered Clouds
11:15 AM 64.4 °F 57.2 °F 77% 30.13 in 10.0 mi Calm Calm - N/A   Partly Cloudy
11:35 AM 66.2 °F 57.2 °F 73% 30.12 in 10.0 mi NE 5.8 mph - N/A   Partly Cloudy
11:55 AM 66.2 °F 57.2 °F 73% 30.12 in 10.0 mi Calm Calm - N/A   Clear
12:15 PM 66.2 °F 57.2 °F 73% 30.13 in 10.0 mi Calm Calm - N/A   Mostly Cloudy
12:35 PM 69.8 °F 59.0 °F 68% 30.12 in 10.0 mi Calm Calm - N/A   Mostly Cloudy
12:55 PM 68.0 °F 57.2 °F 68% 30.12 in 10.0 mi Calm Calm - N/A   Mostly Cloudy
1:15 PM 69.8 °F 59.0 °F 68% 30.11 in 10.0 mi Calm Calm - N/A   Overcast
1:35 PM 73.4 °F 60.8 °F 65% 30.11 in 10.0 mi North 3.5 mph - N/A   Mostly Cloudy
1:55 PM 71.6 °F 59.0 °F 64% 30.10 in 10.0 mi Calm Calm - N/A   Mostly Cloudy
2:15 PM 71.6 °F 60.8 °F 69% 30.10 in 10.0 mi Calm Calm - N/A   Overcast
2:35 PM 71.6 °F 60.8 °F 69% 30.10 in 10.0 mi NNE 4.6 mph - N/A   Overcast
2:55 PM 71.6 °F 60.8 °F 69% 30.10 in 10.0 mi North 5.8 mph - N/A   Mostly Cloudy
3:15 PM 71.6 °F 60.8 °F 69% 30.10 in 10.0 mi Calm Calm - N/A   Mostly Cloudy
3:35 PM 71.6 °F 60.8 °F 69% 30.10 in 10.0 mi North 4.6 mph - N/A   Mostly Cloudy
3:55 PM 71.6 °F 60.8 °F 69% 30.10 in 10.0 mi Calm Calm - N/A   Scattered Clouds
4:15 PM 71.6 °F 60.8 °F 69% 30.10 in 10.0 mi NNE 5.8 mph - N/A   Scattered Clouds
4:35 PM 71.6 °F 60.8 °F 69% 30.10 in 10.0 mi Calm Calm - N/A   Mostly Cloudy
4:55 PM 71.6 °F 60.8 °F 69% 30.10 in 10.0 mi Calm Calm - N/A   Overcast
5:15 PM 69.8 °F 60.8 °F 73% 30.11 in 10.0 mi Calm Calm - N/A   Overcast
5:35 PM 69.8 °F 60.8 °F 73% 30.11 in 10.0 mi Calm Calm - N/A   Overcast
5:55 PM 69.8 °F 60.8 °F 73% 30.11 in 10.0 mi Calm Calm - N/A   Overcast
6:15 PM 69.8 °F 60.8 °F 73% 30.12 in 10.0 mi Calm Calm - N/A   Overcast
6:35 PM 69.8 °F 60.8 °F 73% 30.12 in 10.0 mi Calm Calm - N/A   Mostly Cloudy
6:55 PM 69.8 °F 60.8 °F 73% 30.13 in 10.0 mi Calm Calm - N/A   Overcast
7:15 PM 68.0 °F 60.8 °F 78% 30.13 in 10.0 mi Calm Calm - N/A   Mostly Cloudy
7:35 PM 68.0 °F 62.6 °F 83% 30.14 in 7.0 mi Calm Calm - N/A   Mostly Cloudy
7:55 PM 66.2 °F 62.6 °F 88% 30.15 in 10.0 mi Calm Calm - N/A   Overcast
8:15 PM 66.2 °F 62.6 °F 88% 30.15 in 10.0 mi Calm Calm - N/A   Mostly Cloudy
8:35 PM 66.2 °F 60.8 °F 83% 30.15 in 10.0 mi ENE 3.5 mph - N/A   Mostly Cloudy
8:55 PM 64.4 °F 64.4 °F 100% 30.16 in 10.0 mi Calm Calm - N/A   Mostly Cloudy
9:15 PM 64.4 °F 62.6 °F 94% 30.16 in 9.0 mi Calm Calm - N/A   Scattered Clouds
9:35 PM 64.4 °F 64.4 °F 100% 30.16 in 10.0 mi Calm Calm - N/A   Scattered Clouds
9:55 PM 62.6 °F 62.6 °F 100% 30.16 in 10.0 mi SSE 4.6 mph - N/A   Clear
10:15 PM 62.6 °F 62.6 °F 100% 30.17 in 10.0 mi Calm Calm - N/A   Scattered Clouds
10:35 PM 62.6 °F 62.6 °F 100% 30.17 in 10.0 mi Calm Calm - N/A   Mostly Cloudy
10:55 PM 62.6 °F 60.8 °F 94% 30.17 in 10.0 mi East 3.5 mph - N/A   Partly Cloudy
11:15 PM 62.6 °F 57.2 °F 82% 30.17 in 10.0 mi ESE 4.6 mph - N/A   Partly Cloudy
11:35 PM 62.6 °F 57.2 °F 82% 30.17 in 10.0 mi ESE 3.5 mph - N/A   Clear
11:55 PM 62.6 °F 57.2 °F 82% 30.17 in 10.0 mi Calm Calm - N/A   Clear